Diretta Meteo Torino-Caselle, Italiadomenica 16 giugno ore 20:50

Mappa
Sereno 27 °C Sereno 24 Ore: T.min 14 T.max 29
Ponente Nord Km/h 5.5 Punto di rugiada: 12 °C Umidità: 39% Visibilità: 10 Km
Il sole sorge alle: 05:39 Il sole tramonta alle: 21:20
16 Giugno 2019 20:50 tempo osservato: Sereno Sereno 27 39 1014 vento: Nord N 5.5
16 Giugno 2019 20:20 tempo osservato: Sereno Sereno 27 42 1014 vento: Nord N 5.5
16 Giugno 2019 19:50 tempo osservato: Sereno Sereno 28 39 1014 vento: Nord N 5.5
16 Giugno 2019 19:20 tempo osservato: Sereno Sereno 28 34 1014 vento: Nord N 5.5
16 Giugno 2019 18:50 tempo osservato: Sereno Sereno 28 34 1014 vento: Nord N 5.5
16 Giugno 2019 18:20 tempo osservato: Sereno Sereno 28 37 1014 vento: Nord NE 7.4
16 Giugno 2019 17:50 tempo osservato: Sereno Sereno 28 34 1014 vento: Nord E/NE 7.4
16 Giugno 2019 17:20 tempo osservato: Sereno Sereno 28 34 1014 vento: Nord N 7.4
16 Giugno 2019 16:50 tempo osservato: Sereno Sereno 29 35 1014 vento: Nord E/NE 11.1
16 Giugno 2019 16:20 tempo osservato: Sereno Sereno 29 30 1014 vento: Nord N 5.5
16 Giugno 2019 15:50 tempo osservato: Sereno Sereno 28 32 1015 vento: Nord NE 7.4
16 Giugno 2019 15:20 tempo osservato: Sereno Sereno 28 30 1015 vento: Nord N 5.5
16 Giugno 2019 14:50 tempo osservato: Sereno Sereno 28 32 1015 vento: Nord NE 7.4
16 Giugno 2019 14:20 tempo osservato: Sereno Sereno 27 34 1015 vento: Nord E 7.4
16 Giugno 2019 13:50 tempo osservato: Sereno Sereno 27 39 1015 vento: Nord N 5.5
16 Giugno 2019 13:20 tempo osservato: Sereno Sereno 27 42 1015 vento: Nord N 5.5
16 Giugno 2019 12:50 tempo osservato: Sereno Sereno 26 41 1016 vento: Nord E 7.4
16 Giugno 2019 12:20 tempo osservato: Sereno Sereno 25 44 1016 vento: Nord S/SE 7.4
16 Giugno 2019 11:50 tempo osservato: Sereno Sereno 25 47 1016 vento: Nord N 5.5
16 Giugno 2019 11:20 tempo osservato: Sereno Sereno 24 50 1016 vento: Nord N 3.7
16 Giugno 2019 10:50 tempo osservato: Sereno Sereno 23 56 1016 vento: Nord N 3.7
16 Giugno 2019 10:20 tempo osservato: Sereno Sereno 22 56 1016 vento: Nord N 3.7
16 Giugno 2019 09:50 tempo osservato: Sereno Sereno 21 64 1016 vento: Nord N 3.7
16 Giugno 2019 09:20 tempo osservato: Sereno Sereno 20 68 1016 vento: Nord N 3.7
16 Giugno 2019 08:50 tempo osservato: Sereno Sereno 19 68 1016 vento: Nord N 5.5
16 Giugno 2019 08:20 tempo osservato: Sereno Sereno 18 67 1016 vento: Nord O 7.4
16 Giugno 2019 07:50 tempo osservato: Sereno Sereno 17 67 1015 vento: Nord N 5.5
16 Giugno 2019 07:20 tempo osservato: Sereno Sereno 16 77 1015 vento: Nord N 3.7
16 Giugno 2019 06:50 tempo osservato: Sereno Sereno 16 72 1015 vento: Nord O/NO 7.4
16 Giugno 2019 06:20 tempo osservato: Sereno Sereno 14 82 1015 vento: Nord N 3.7
16 Giugno 2019 05:50 tempo osservato: Sereno Sereno 15 76 1015 vento: Nord N 5.5
16 Giugno 2019 05:20 tempo osservato: Sereno Sereno 15 76 1015 vento: Nord N 1.8
16 Giugno 2019 04:50 tempo osservato: Sereno Sereno 15 87 1015 vento: Nord N 5.5
16 Giugno 2019 04:20 tempo osservato: Sereno Sereno 15 82 1015 vento: Nord O/NO 7.4
16 Giugno 2019 03:50 tempo osservato: Sereno Sereno 16 82 1015 vento: Nord N 3.7
16 Giugno 2019 03:20 tempo osservato: Sereno Sereno 15 93 1015 vento: Nord N 1.8
16 Giugno 2019 02:50 tempo osservato: Sereno Sereno 16 93 1015 vento: Nord N 5.5
16 Giugno 2019 02:20 tempo osservato: Sereno Sereno 16 93 1015 vento: Nord NO 9.3
16 Giugno 2019 01:50 tempo osservato: Sereno Sereno 16 87 1015 vento: Nord N 9.3
16 Giugno 2019 01:20 tempo osservato: Sereno Sereno 16 93 1015 vento: Nord N/NO 9.3
16 Giugno 2019 00:50 tempo osservato: Sereno Sereno 17 88 1015 vento: Nord N 5.5
16 Giugno 2019 00:20 tempo osservato: Sereno Sereno 16 93 1015 vento: Nord SE 7.4
15 Giugno 2019 23:50 tempo osservato: Sereno Sereno 17 93 1015 vento: Nord N 5.5
15 Giugno 2019 23:20 tempo osservato: Sereno Sereno 17 93 1015 vento: Nord S/SO 7.4
15 Giugno 2019 22:50 tempo osservato: Sereno Sereno 18 82 1015 vento: Nord N 3.7
15 Giugno 2019 22:20 tempo osservato: Poco Nuvoloso Poco Nuvoloso 18 82 1015 vento: Nord N 5.5
15 Giugno 2019 21:50 tempo osservato: Poco Nuvoloso Poco Nuvoloso 18 82 1015 vento: Nord NO 11.1